Regional Weather Roundup
Issued by NWS

Home | Current Version | Previous Version | Graphics & Text | Print | Product List | Glossary On
Versions: 1 2 3 4 5 6 7 8 9 10 11 12 13 14 15 16 17 18 19 20 21 22 23 24 25 26 27 28 29 30 31 32 33 34 35 36 37 38 39 40 41 42 43 44 45 46 47 48 49 50
000
ASUS43 KOAX 271602
RWRNE

WEATHER ROUNDUP FOR NEBRASKA
NATIONAL WEATHER SERVICE OMAHA NE
1100 AM CDT SAT MAY 27 2017

NOTES: SATELLITE DATA IS BEING USED TO AUGMENT CLOUD COVER ABOVE
       12000 FEET.
       "FAIR" INDICATES FEW OR NO CLOUDS BELOW 12,000 FEET WITH NO
       SIGNIFICANT WEATHER AND/OR OBSTRUCTIONS TO VISIBILITY.

  * THESE STATIONS DO NOT REPORT WEATHER SUCH AS RAIN...SNOW OR FOG.

NEZ001>004-019>022-054>056-271700-
NEBRASKA PANHANDLE

CITY           SKY/WX    TMP DP  RH WIND       PRES   REMARKS
SCOTTSBLUFF    CLOUDY    58  45  62 NW13      30.07S
ALLIANCE       CLOUDY    58  48  69 NW15      30.04R
CHADRON        CLOUDY    59  48  67 NW6       30.05R
GORDON         CLOUDY    57  49  75 NW8       30.03S
KIMBALL        CLOUDY    52  43  70 N13       30.10R
SIDNEY         CLOUDY    51  47  86 NW13      30.07S
$$

NEZ057>060-069>072-079>082-271700-
SOUTHWEST NEBRASKA

CITY           SKY/WX    TMP DP  RH WIND       PRES   REMARKS
NORTH PLATTE   CLOUDY    61  53  75 NW12      29.99R
IMPERIAL       CLOUDY    57  50  77 N15       30.01S
LEXINGTON      SUNNY     65  52  62 NE8       29.95R
MCCOOK         MOSUNNY   67  55  65 NE7       29.94S
OGALLALA       CLOUDY    56  53  91 N9        30.02F
$$

NEZ005>010-023>029-035>040-094-271700-
NORTH CENTRAL NEBRASKA

CITY           SKY/WX    TMP DP  RH WIND       PRES   REMARKS
VALENTINE      CLOUDY    56  50  80 N6        30.02S
AINSWORTH      CLOUDY    55  51  86 N12       30.01S
BROKEN BOW     PTSUNNY   65  52  62 NE9       29.96R
O`NEILL        CLOUDY    58  51  78 NE5       29.98R
ORD            SUNNY     65  51  60 NE10      29.94S
THEDFORD       DRIZZLE   54  51  91 N7        30.03R
$$

NEZ041-046>049-061>064-073>077-083>087-271700-
SOUTH CENTRAL NEBRASKA

CITY           SKY/WX    TMP DP  RH WIND       PRES   REMARKS
GRAND ISLAND   MOSUNNY   66  51  58 E15       29.92R
AURORA         PTSUNNY   66  51  57 NE15      29.91S
HASTINGS       CLOUDY    65  53  65 E13       29.91R
HEBRON         CLOUDY    63  56  79 E16       29.87F
HOLDREGE       SUNNY     64  51  64 NE8       29.93R
KEARNEY *      SUNNY     64  50  59 NE12      29.93R
YORK           PTSUNNY   64  52  63 E13       29.91S
$$

NEZ011>018-030>034-042>045-271700-
NORTHEAST NEBRASKA

CITY           SKY/WX    TMP DP  RH WIND       PRES   REMARKS
NORFOLK        CLOUDY    66  49  54 N14       29.92F
ALBION         CLOUDY    67  48  50 N10       29.95R
BLAIR          CLOUDY    59  53  80 NE12      29.88F
FREMONT        CLOUDY    65  49  55 NE10      29.90F
TEKAMAH        CLOUDY    63  52  67 E8        29.91F
WAYNE          CLOUDY    64  51  62 N10       29.94R
$$

NEZ050>053-065>068-078-088>093-271700-
SOUTHEAST NEBRASKA

CITY           SKY/WX    TMP DP  RH WIND       PRES   REMARKS
LINCOLN        CLOUDY    65  54  67 NE12      29.89S
OMAHA EPPLEY   RAIN      58  53  84 N9        29.88F
BEATRICE       CLOUDY    62  55  78 CALM      29.90R
FALLS CITY     CLOUDY    62  59  90 SW6       29.90S
NEBRASKA CITY  PTSUNNY   59  59 100 NE12      29.88F
PLATTSMOUTH    LGT RAIN  59  56  88 NE17G25   29.85F
$$

NEZ044-045-051>053-067-271700-
OMAHA AREA

CITY           SKY/WX    TMP DP  RH WIND       PRES   REMARKS
OMAHA EPPLEY   RAIN      58  53  84 N9        29.88F
BLAIR          CLOUDY    59  53  80 NE12      29.88F
FREMONT        CLOUDY    65  49  55 NE10      29.90F
MILLARD        CLOUDY    60  56  86 NE5       29.86F
OFFUTT AFB     RAIN      57  54  88 NE14G24   29.82F
PLATTSMOUTH    LGT RAIN  59  56  88 NE17G25   29.85F
WAHOO          FAIR      65  51  60 NE13      29.88F
$$




USA.gov is the U.S. government's official web portal to all federal, state and local government web resources and services.